Regional Weather Roundup
Issued by NWS

Home | Current Version | Previous Version | Text Only | Print | Product List | Glossary Off
Versions: 1 2 3 4 5 6 7 8 9 10 11 12 13 14 15 16 17 18 19 20 21 22 23 24 25 26 27 28 29 30 31 32 33 34 35 36 37 38 39 40 41 42 43 44 45 46 47 48 49 50

000
ASUS43 KIND 261259
RWRIN

WEATHER ROUNDUP FOR INDIANA
NATIONAL WEATHER SERVICE INDIANAPOLIS IN
900 AM EDT TUE MAY 26 2015

NOTE: "FAIR" INDICATES FEW OR NO CLOUDS BELOW 12,000 FEET WITH NO
SIGNIFICANT WEATHER AND/OR OBSTRUCTIONS TO VISIBILITY.

* - STATION DOES NOT REPORT WEATHER SUCH AS PRECIPITATION OR FOG.

+ - STATION NOT QUALITY CONTROLLED BY THE NATIONAL WEATHER SERVICE.
    USE DATA WITH CAUTION...ESPECIALLY DEWPOINT AND RELATIVE
    HUMIDITY OBSERVATIONS.

INZ001>003-010>013-019-020-261400-
NORTHWEST INDIANA

CITY           SKY/WX    TMP DP  RH WIND       PRES   REMARKS
GARY /AIRPORT/ PTSUNNY   72  66  83 S12       29.96F
RENSSELAER +   CLOUDY    70  68  94 S13       29.98F

$$

LMZ046-743>745-261400-
SOUTHERN LAKE MICHIGAN

STATION/POSITION TIME  TEMP    WIND        PRES    WAVE
                       AIR SEA DIR/SP/G            HT
                 (UTC) (F)     (DEG/KT/KT) (MB)    (FT)
BURNS HARBOR     1200   69     180/ 10/ 17 1015.2F
MICHIGAN CITY    1200   67     160/ 15/ 20   N/A
5NW MICH CITY    1200   62 52  190/ 10/ 12   N/A     1

$$

INZ004-005-014>016-021>024-261400-
NORTH CENTRAL INDIANA

CITY           SKY/WX    TMP DP  RH WIND       PRES   REMARKS
ELKHART        CLOUDY    66  64  94 S6        30.03R
GOSHEN         CLOUDY    68  64  87 S8        30.03F
SOUTH BEND     CLOUDY    69  64  84 S10       30.01F

$$

INZ006>009-017-018-025>027-261400-
NORTHEAST INDIANA

CITY           SKY/WX    TMP DP  RH WIND       PRES   REMARKS
ANGOLA *+      CLOUDY    64  64 100 S10       30.07R
FORT WAYNE     PTSUNNY   70  65  84 S14       30.06S

$$

INZ028-029-035-036-043>045-051>053-261400-
WEST CENTRAL INDIANA

CITY           SKY/WX    TMP DP  RH WIND       PRES   REMARKS
CRAWFORDSVL +  CLOUDY    68  61  77 S12       30.01F
GREENCASTLE +  CLOUDY    68  61  77 S10       30.03S
LAFAYETTE      CLOUDY    69  65  86 S8        29.99F
TERRE HAUTE    CLOUDY    70  66  87 S10       29.99F

$$

INZ030>032-037>040-046>048-054>057-064-065-261400-
CENTRAL INDIANA

CITY           SKY/WX    TMP DP  RH WIND       PRES   REMARKS
ANDERSON       MOSUNNY   72  61  68 S17G23    30.08
COLUMBUS       SUNNY     70  63  78 S13       30.07S
GREENWOOD *+   CLOUDY    72  63  73 S14       30.05F
INDIANAPOLIS   CLOUDY    71  63  75 S14       30.03S
-EAGLE CREEK   CLOUDY    70  64  81 S10       30.03F
KOKOMO *+      CLOUDY    70  64  83 S14       30.04S
MT COMFORT *+  PTSUNNY   72  59  64 S15G22    30.06F
SHELBYVILLE    PTSUNNY   73  63  70 S16       30.06S

$$

INZ033-034-041-042-049-050-058-059-261400-
EAST CENTRAL INDIANA

CITY           SKY/WX    TMP DP  RH WIND       PRES   REMARKS
MUNCIE         MOSUNNY   72  63  73 S17G24    30.07S

$$

INZ060-061-067>069-081>083-085>088-261400-
SOUTHWEST INDIANA

CITY           SKY/WX    TMP DP  RH WIND       PRES   REMARKS
EVANSVILLE     PTSUNNY   72  64  76 S8G16     30.00F
HUNTINGBURG *+ PTSUNNY   70  63  78 S10       30.04S

$$

INZ062-063-066-070>080-084-089>092-261400-
SOUTH CENTRAL AND SOUTHEAST INDIANA

CITY           SKY/WX    TMP DP  RH WIND       PRES   REMARKS
BLOOMINGTON    CLOUDY    69  64  84 S13       30.04S
MADISON *+     MOSUNNY   70  63  78 SE8       30.12S
SEYMOUR +      PTSUNNY   73  64  73 S8        30.07F

$$




USA.gov is the U.S. government's official web portal to all federal, state and local government web resources and services.